Weather in Bartenevka

Russia / Saratov Oblast     52°25′29″N   49°04′59″E
temp.,
°C
wind,
m/s
gust,
m/s
humid.,
%
clouds,
%
prec.,
mm/h
press.,
hPa
HPBL,
m
17 may, mon
mon1701:00+20se4124928 0.0 1016215
04:00+19sse4125388 0.0 1017183
07:00+22s385391 0.0 1017185
10:00+28s45315 0.0 1017502
13:00+31sse56235 0.0 10171464
16:00+31sse44185 0.0 10173262
19:00+27sse48365 0.0 1016161
22:00+22se33380 0.0 101726
18 may, tue
tue1801:00+20ese33360 0.0 101625
04:00+19ese44360 0.0 101645
07:00+20e49440 0.0 1016195
10:00+27se57300 0.0 1016562
13:00+31se56230 0.0 10151553
16:00+32se45195 0.0 10153586
19:00+29ese23325 0.0 101429
22:00+22e46405 0.0 101476
19 may, wed
wed1901:00+21e47372 0.0 101494
04:00+18ene510535 0.0 1014147
07:00+20e612702 0.0 1014312
10:00+26ese79462 0.0 1014682
13:00+29e78330 0.0 10132029
16:00+29e77323 0.0 10132746
19:00+26e712420 0.0 1013541
22:00+22e816530 0.0 1014676
20 may, thu
thu2001:00+20ese815550 0.0 1014598
04:00+18ese81659100 0.0 1014491
07:00+18ese71561100 0.0 1015730
10:00+22se9125197 0.0 10141059
13:00+25se9104599 0.0 10132265
16:00+21se5960100 0.3 1012493
19:00+16wnw7988100 3.4 1013306
22:00+15w2592100 6.3 1013233
21 may, fri
fri2101:00+15sw3592100 0.1 1013201
04:00+14s34945 0.4 101488
07:00+16sw58804 0.0 1015326
10:00+19sw676237 0.0 10161083
13:00+22wsw675183 0.0 10171838
16:00+23wsw6745100 0.0 10171928
19:00+21wsw355483 0.0 1018262
22:00+18sse226168 0.0 101815